Weather History for Tallahassee, FL

Change the Weather History Date:

Saturday, February 9, 2013

  Actual Average Record
Temperature  
Mean Temperature 58 °F 54 °F  
Max Temperature 69 °F 66 °F 85 °F (1932)
Min Temperature 46 °F 41 °F 15 °F (1895)
Degree Days  
Heating Degree Days 7    
Month to date heating degree days 84  
Since 1 July heating degree days 802  
Cooling Degree Days 0    
Month to date cooling degree days 0  
Year to date cooling degree days 34  
Growing Degree Days 8 (Base 50)    
Moisture  
Dew Point 41 °F    
Average Humidity 58    
Maximum Humidity 93    
Minimum Humidity 23    
Precipitation  
Precipitation 0.00 in 0.16 in 3.01 in (1973)
Month to date precipitation 0.39 1.43  
Year to date precipitation 1.24 5.77  
Sea Level Pressure  
Sea Level Pressure 30.20 in    
Wind  
Wind Speed 4 mph (NE)    
Max Wind Speed 13 mph    
Max Gust Speed 15 mph    
Visibility 10 miles    
Events      
T = Trace of Precipitation, MM = Missing Value Source: NWS Daily Summary

Daily Weather History Graph

Daily Weather History Graph

Search for Another Location

Airport:

Trip Planner

Search our weather history database for the weather conditions in past years. The results will help you decide how hot, cold, wet, or windy it might be!

Date:

Astronomy

Feb. 09, 2013 Rise Set
Actual Time 7:22 AM EST 6:21 PM EST
Civil Twilight 6:57 AM EST 6:45 PM EST
Nautical Twilight 6:29 AM EST 7:14 PM EST
Astronomical Twilight 6:01 AM EST 7:42 PM EST
Moon 6:34 AM EST (2/9) 6:00 PM EST (2/9)
Length of Visible Light 11h 48m
Length of Day
10h 58m
Waning Crescent, 0% of the Moon is Illuminated
Feb 9
Waning Crescent
Feb 10
New
Feb 17
First Quarter
Feb 25
Full
Mar 4
Last Quarter

Hourly Weather History & Observations

Time (EST) Temp. Dew Point Humidity Pressure Visibility Wind Dir Wind Speed Gust Speed Precip Events Conditions
12:20 AM 57.2 °F 51.8 °F 82% 30.14 in 10.0 mi North 6.9 mph - N/A   Mostly Cloudy
12:46 AM 57.2 °F 51.8 °F 82% 30.14 in 10.0 mi NNW 3.5 mph - N/A   Scattered Clouds
12:53 AM 55.9 °F 51.1 °F 84% 30.14 in 10.0 mi Calm Calm - N/A   Partly Cloudy
1:53 AM 54.0 °F 50.0 °F 86% 30.14 in 10.0 mi Calm Calm - N/A   Clear
2:53 AM 48.9 °F 46.0 °F 90% 30.15 in 10.0 mi Calm Calm - N/A   Clear
3:53 AM 48.0 °F 45.0 °F 89% 30.17 in 10.0 mi Calm Calm - N/A   Clear
4:53 AM 50.0 °F 46.9 °F 89% 30.17 in 10.0 mi North 8.1 mph - N/A   Clear
5:53 AM 48.9 °F 46.0 °F 90% 30.19 in 10.0 mi North 4.6 mph - N/A   Clear
6:53 AM 48.0 °F 43.0 °F 83% 30.21 in 10.0 mi North 3.5 mph - N/A   Clear
7:53 AM 46.9 °F 42.1 °F 83% 30.24 in 10.0 mi NNE 5.8 mph - N/A   Clear
8:53 AM 50.0 °F 42.1 °F 74% 30.25 in 10.0 mi NE 8.1 mph - N/A   Clear
9:53 AM 53.1 °F 39.0 °F 59% 30.27 in 10.0 mi NE 6.9 mph - N/A   Clear
10:53 AM 57.0 °F 39.0 °F 51% 30.27 in 10.0 mi NE 9.2 mph - N/A   Clear
11:53 AM 61.0 °F 37.9 °F 42% 30.25 in 10.0 mi East 9.2 mph - N/A   Clear
12:53 PM 63.0 °F 37.0 °F 38% 30.23 in 10.0 mi East 4.6 mph - N/A   Clear
1:53 PM 64.9 °F 33.1 °F 31% 30.21 in 10.0 mi Calm Calm - N/A   Clear
2:53 PM 66.9 °F 33.1 °F 28% 30.19 in 10.0 mi Variable 3.5 mph - N/A   Clear
3:53 PM 69.1 °F 30.9 °F 24% 30.18 in 10.0 mi East 5.8 mph - N/A   Clear
4:53 PM 69.1 °F 32.0 °F 25% 30.17 in 10.0 mi East 9.2 mph - N/A   Clear
5:53 PM 66.9 °F 34.0 °F 30% 30.18 in 10.0 mi ESE 6.9 mph - N/A   Clear
6:53 PM 59.0 °F 39.0 °F 48% 30.19 in 10.0 mi Calm Calm - N/A   Clear
7:53 PM 51.1 °F 37.9 °F 61% 30.21 in 10.0 mi Calm Calm - N/A   Clear
8:53 PM 48.0 °F 39.9 °F 74% 30.21 in 10.0 mi Calm Calm - N/A   Clear
9:53 PM 46.9 °F 39.0 °F 74% 30.21 in 10.0 mi Calm Calm - N/A   Clear
10:53 PM 51.1 °F 41.0 °F 68% 30.21 in 10.0 mi East 8.1 mph - N/A   Clear
11:53 PM 53.1 °F 41.0 °F 64% 30.22 in 10.0 mi ESE 8.1 mph - N/A   Clear